Overview Statistics Trail Chart Weather Telemetry Raw packets
 

This is the latest recevied weather packets stored in our database for station/object WI0K. If no packets are shown the sender has not sent any weather packets the latest 10 day(s).

<< 18 19 20 21 22 23 24 >>
Time Temp. Humidity Pressure Rain* Wind** Luminosity Snow
1788538570 27.78° C 30% 1018.5 hPa 0 mm - 693 W/m² -
1788538269 27.22° C 30% 1018.5 hPa 0 mm - 678 W/m² -
1788537969 27.22° C 32% 1018.5 hPa 0 mm - 663 W/m² -
1788537667 26.67° C 31% 1018.6 hPa 0 mm - 648 W/m² -
1788537367 26.67° C 33% 1018.6 hPa 0 mm - 633 W/m² -
1788537066 26.67° C 31% 1018.6 hPa 0 mm - 619 W/m² -
1788536765 26.11° C 34% 1018.5 hPa 0 mm - 602 W/m² -
1788536465 25.56° C 33% 1018.5 hPa 0 mm - 580 W/m² -
1788536164 25° C 34% 1018.5 hPa 0 mm - 570 W/m² -
1788535863 25° C 35% 1018.5 hPa 0 mm - 557 W/m² -
1788535562 24.44° C 39% 1018.5 hPa 0 mm - 534 W/m² -
1788535261 23.89° C 37% 1018.5 hPa 0 mm - 516 W/m² -
1788534960 23.33° C 38% 1018.6 hPa 0 mm - 503 W/m² -
1788534659 23.33° C 40% 1018.5 hPa 0 mm - 482 W/m² -
1788534359 23.33° C 39% 1018.5 hPa 0 mm - 468 W/m² -
1788534058 23.33° C 42% 1018.5 hPa 0 mm - 448 W/m² -
1788533757 22.78° C 40% 1018.5 hPa 0 mm - 432 W/m² -
1788533457 22.78° C 42% 1018.5 hPa 0 mm - 412 W/m² -
1788533156 22.78° C 41% 1018.5 hPa 0 mm - 394 W/m² -
1788532855 22.22° C 42% 1018.5 hPa 0 mm - 374 W/m² -
1788532555 21.67° C 42% 1018.5 hPa 0 mm - 356 W/m² -
1788532253 21.11° C 43% 1018.5 hPa 0 mm - 338 W/m² -
1788531951 21.11° C 43% 1018.5 hPa 0 mm - 319 W/m² -
1788531648 20.56° C 44% 1018.5 hPa 0 mm - 300 W/m² -
1788531347 20.56° C 44% 1018.5 hPa 0 mm - 278 W/m² -

* Rain latest hour (hover to see other rain measurements)
** Current wind speed in m/s (hover to see current wind gust speed)